STARLINK-33584 (62761 NORAD) Tracking and Keplerian Element Data

This shows tracking and keplerian element data for the satellite.

Feedback or suggestion? Click here.




ElementValue
Catalog62761
NameSTARLINK-33584
Epoch Orbit5230
Epoch Day354.1454651
Epoch Year2025
RAAN331.8559
Inclination53.1625
Eccentricity0.0001517
Argument of Perigee108.8596
Mean Anonmoly251.2569
Mean Motion15.30199043
Decay Rate0.00015107
L11 62761U 25015D 25354.14546510 .00015107 00000+0 52117-3 0 9992
L22 62761 53.1625 331.8559 0001517 108.8596 251.2569 15.30199043 52306



Live tracking and technical data element details for STARLINK-33584 (NORAD 62761). STARLINK-33584 can be tracked NOW for your location showing map with azimuth and elevation plus other details from your city location.







IsCatalogInMostPopularTable: catalog: 62761, numindb: 256
Update: records affected: 1



GetName: 62761 STARLINK-33584

Hit Count: updated at: Sat, 14 Mar 2026 03:19:55 GMT